| time (UTC) | temp F | wind direction | speed MPH | gust MPH | rain 1hr in | rain 24hr in | rain mn in | humidity % | barometer mb |
| 20260902220104 | 76 | 248 | 5.0 | 13.0 | 0.00 | 0.00 | 0.00 | 68 | 1015.8 |
| 20260902214600 | 76 | 259 | 3.0 | 14.0 | 0.00 | 0.00 | 0.00 | 67 | 1015.9 |
| 20260902213055 | 75 | 223 | 6.0 | 13.0 | 0.00 | 0.00 | 0.00 | 69 | 1016.0 |
| 20260902211553 | 74 | 229 | 6.0 | 13.0 | 0.00 | 0.00 | 0.00 | 69 | 1016.0 |
| 20260902210121 | 74 | 247 | 7.0 | 15.0 | 0.00 | 0.00 | 0.00 | 69 | 1016.1 |
| 20260902204601 | 75 | 201 | 6.0 | 13.0 | 0.00 | 0.00 | 0.00 | 69 | 1016.1 |
| 20260902203107 | 75 | 259 | 5.0 | 13.0 | 0.00 | 0.00 | 0.00 | 69 | 1016.2 |
| 20260902201614 | 75 | 245 | 5.0 | 12.0 | 0.00 | 0.00 | 0.00 | 69 | 1016.3 |
| 20260902200107 | 75 | 256 | 6.0 | 12.0 | 0.00 | 0.00 | 0.00 | 69 | 1016.4 |
| 20260902194600 | 75 | 259 | 7.0 | 14.0 | 0.00 | 0.00 | 0.00 | 71 | 1016.5 |
| 20260902193100 | 75 | 217 | 5.0 | 14.0 | 0.00 | 0.00 | 0.00 | 69 | 1016.6 |
| 20260902191601 | 75 | 261 | 7.0 | 13.0 | 0.00 | 0.00 | 0.00 | 69 | 1016.8 |
| 20260902190125 | 76 | 360 | 5.0 | 12.0 | 0.00 | 0.00 | 0.00 | 69 | 1016.6 |
| 20260902184608 | 75 | 220 | 4.0 | 10.0 | 0.00 | 0.00 | 0.00 | 68 | 1016.7 |
| 20260902183110 | 76 | 221 | 4.0 | 12.0 | 0.00 | 0.00 | 0.00 | 67 | 1016.8 |
| 20260902181608 | 76 | 360 | 4.0 | 10.0 | 0.00 | 0.00 | 0.00 | 69 | 1017.1 |
| 20260902174600 | 74 | 233 | 5.0 | 10.0 | 0.00 | 0.00 | 0.00 | 69 | 1017.1 |
| 20260902173056 | 76 | 190 | 2.0 | 10.0 | 0.00 | 0.00 | 0.00 | 67 | 1017.1 |
| 20260902171620 | 77 | 161 | 4.0 | 9.0 | 0.00 | 0.00 | 0.00 | 66 | 1016.9 |
| 20260902170059 | 77 | 182 | 1.0 | 6.0 | 0.00 | 0.00 | 0.00 | 67 | 1016.9 |
| 20260902164601 | 76 | 179 | 2.0 | 9.0 | 0.00 | 0.00 | 0.00 | 67 | 1017.0 |
| 20260902163103 | 78 | 236 | 3.0 | 8.0 | 0.00 | 0.00 | 0.00 | 64 | 1017.0 |
| 20260902161603 | 75 | 196 | 3.0 | 7.0 | 0.00 | 0.00 | 0.00 | 67 | 1016.8 |
| 20260902160105 | 76 | 115 | 1.0 | 7.0 | 0.00 | 0.00 | 0.00 | 67 | 1016.8 |
| 20260902154604 | 72 | 60 | 1.0 | 8.0 | 0.00 | 0.00 | 0.00 | 73 | 1016.8 |
| 20260902153101 | 74 | 67 | 2.0 | 5.0 | 0.00 | 0.00 | 0.00 | 70 | 1016.7 |
| 20260902151603 | 72 | 78 | 2.0 | 6.0 | 0.00 | 0.00 | 0.00 | 73 | 1016.8 |
| 20260902150106 | 70 | 42 | 1.0 | 4.0 | 0.00 | 0.00 | 0.00 | 79 | 1016.7 |
| 20260902144602 | 67 | 36 | 1.0 | 3.0 | 0.00 | 0.00 | 0.00 | 83 | 1016.6 |
| 20260902143055 | 66 | 0 | 1.0 | 3.0 | 0.00 | 0.00 | 0.00 | 85 | 1016.7 |
| 20260902141601 | 65 | 0 | 0.0 | 3.0 | 0.00 | 0.00 | 0.00 | 85 | 1016.6 |
| 20260902140100 | 64 | 34 | 1.0 | 3.0 | 0.00 | 0.00 | 0.00 | 86 | 1016.3 |
| 20260902134615 | 64 | 35 | 0.0 | 3.0 | 0.00 | 0.00 | 0.00 | 86 | 1016.3 |
| 20260902133056 | 63 | 36 | 1.0 | 3.0 | 0.00 | 0.00 | 0.00 | 86 | 1016.0 |
| 20260902131601 | 63 | 34 | 1.0 | 3.0 | 0.00 | 0.00 | 0.00 | 86 | 1016.0 |
| 20260902124554 | 64 | 38 | 2.0 | 3.0 | 0.00 | 0.00 | 0.00 | 86 | 1015.9 |
| 20260902123103 | 64 | 40 | 1.0 | 3.0 | 0.00 | 0.00 | 0.00 | 87 | 1015.8 |
| 20260902121559 | 64 | 40 | 2.0 | 4.0 | 0.00 | 0.00 | 0.00 | 86 | 1015.8 |
| 20260902120058 | 64 | 47 | 2.0 | 5.0 | 0.00 | 0.00 | 0.00 | 86 | 1015.9 |
| 20260902114600 | 64 | 48 | 2.0 | 5.0 | 0.00 | 0.00 | 0.00 | 86 | 1015.9 |
| 20260902113109 | 64 | 46 | 2.0 | 5.0 | 0.00 | 0.00 | 0.00 | 86 | 1016.0 |
| 20260902111602 | 64 | 46 | 2.0 | 4.0 | 0.00 | 0.00 | 0.00 | 85 | 1016.0 |
| 20260902104602 | 65 | 52 | 2.0 | 4.0 | 0.00 | 0.00 | 0.00 | 85 | 1016.0 |
| 20260902103100 | 65 | 49 | 3.0 | 6.0 | 0.00 | 0.00 | 0.00 | 85 | 1016.1 |
| 20260902101557 | 65 | 42 | 2.0 | 5.0 | 0.00 | 0.00 | 0.00 | 84 | 1016.2 |
| 20260902100056 | 66 | 32 | 2.0 | 4.0 | 0.00 | 0.00 | 0.00 | 84 | 1016.3 |
| 20260902094558 | 66 | 25 | 2.0 | 4.0 | 0.00 | 0.00 | 0.00 | 84 | 1016.3 |
| 20260902093057 | 66 | 20 | 0.0 | 3.0 | 0.00 | 0.00 | 0.00 | 84 | 1016.4 |
| 20260902091605 | 66 | 20 | 2.0 | 3.0 | 0.00 | 0.00 | 0.00 | 84 | 1016.5 |
| 20260902090059 | 66 | 350 | 2.0 | 3.0 | 0.00 | 0.00 | 0.00 | 84 | 1016.5 |
| 20260902084604 | 66 | 0 | 0.0 | 0.0 | 0.00 | 0.00 | 0.00 | 84 | 1016.7 |
| 20260902083103 | 66 | 0 | 0.0 | 0.0 | 0.00 | 0.00 | 0.00 | 83 | 1016.6 |
| 20260902081603 | 67 | 0 | 0.0 | 0.0 | 0.00 | 0.00 | 0.00 | 84 | 1016.5 |
| 20260902080059 | 67 | 0 | 0.0 | 0.0 | 0.00 | 0.00 | 0.00 | 84 | 1016.5 |
| 20260902074610 | 66 | 0 | 0.0 | 0.0 | 0.00 | 0.00 | 0.00 | 84 | 1016.5 |
| 20260902073101 | 66 | 0 | 0.0 | 0.0 | 0.00 | 0.00 | 0.00 | 84 | 1016.5 |
| 20260902071601 | 66 | 0 | 0.0 | 0.0 | 0.00 | 0.00 | 0.00 | 84 | 1016.4 |
| 20260902070057 | 66 | 0 | 0.0 | 0.0 | 0.00 | 0.00 | 0.00 | 83 | 1016.3 |
| 20260902064557 | 67 | 0 | 0.0 | 0.0 | 0.00 | 0.00 | 0.00 | 83 | 1016.3 |
| 20260902063111 | 67 | 0 | 0.0 | 0.0 | 0.00 | 0.00 | 0.00 | 83 | 1016.2 |
| 20260902060108 | 67 | 0 | 0.0 | 0.0 | 0.00 | 0.00 | 0.00 | 83 | 1016.1 |
| 20260902054606 | 67 | 0 | 0.0 | 0.0 | 0.00 | 0.00 | 0.00 | 82 | 1016.0 |
| 20260902053057 | 68 | 0 | 0.0 | 0.0 | 0.00 | 0.00 | 0.00 | 82 | 1016.1 |
| 20260902051559 | 68 | 0 | 0.0 | 0.0 | 0.00 | 0.00 | 0.00 | 82 | 1016.2 |
| 20260902050055 | 68 | 0 | 0.0 | 0.0 | 0.00 | 0.00 | 0.00 | 82 | 1016.2 |
| 20260902044607 | 69 | 0 | 0.0 | 0.0 | 0.00 | 0.00 | 0.00 | 82 | 1016.2 |
| 20260902043111 | 69 | 0 | 0.0 | 1.0 | 0.00 | 0.00 | 0.00 | 82 | 1016.1 |
| 20260902041605 | 69 | 0 | 0.0 | 0.0 | 0.00 | 0.00 | 0.00 | 82 | 1015.9 |
| 20260902040057 | 69 | 0 | 0.0 | 1.0 | 0.00 | 0.00 | 0.00 | 82 | 1015.5 |
| 20260902034614 | 68 | 0 | 0.0 | 2.0 | 0.00 | 0.00 | 0.00 | 82 | 1015.1 |
| 20260902033101 | 69 | 284 | 0.0 | 2.0 | 0.00 | 0.00 | 0.00 | 82 | 1015.0 |
| 20260902031605 | 69 | 0 | 1.0 | 3.0 | 0.00 | 0.00 | 0.00 | 81 | 1014.7 |
| 20260902030100 | 70 | 0 | 1.0 | 7.0 | 0.00 | 0.00 | 0.00 | 81 | 1014.5 |
| 20260902024600 | 70 | 0 | 0.0 | 6.0 | 0.00 | 0.00 | 0.00 | 81 | 1014.4 |
| 20260902023054 | 70 | 257 | 1.0 | 6.0 | 0.00 | 0.00 | 0.00 | 80 | 1014.4 |
| 20260902021608 | 71 | 269 | 2.0 | 9.0 | 0.00 | 0.00 | 0.00 | 78 | 1014.3 |
| 20260902014557 | 72 | 227 | 2.0 | 7.0 | 0.00 | 0.00 | 0.00 | 75 | 1014.5 |
| 20260902013059 | 72 | 311 | 3.0 | 8.0 | 0.00 | 0.00 | 0.00 | 76 | 1014.4 |
| 20260902011553 | 74 | 360 | 2.0 | 8.0 | 0.00 | 0.00 | 0.00 | 71 | 1014.4 |
| 20260902010059 | 76 | 239 | 2.0 | 9.0 | 0.00 | 0.00 | 0.00 | 70 | 1014.3 |
| 20260902004559 | 75 | 360 | 4.0 | 11.0 | 0.00 | 0.00 | 0.00 | 72 | 1014.4 |
| 20260902003134 | 75 | 249 | 3.0 | 11.0 | 0.00 | 0.00 | 0.00 | 70 | 1014.4 |
| 20260902001600 | 74 | 261 | 6.0 | 11.0 | 0.00 | 0.00 | 0.00 | 71 | 1014.4 |
| 20260902000059 | 75 | 360 | 4.0 | 11.0 | 0.00 | 0.00 | 0.00 | 71 | 1014.7 |
| 20260901234555 | 74 | 360 | 6.0 | 13.0 | 0.00 | 0.00 | 0.00 | 72 | 1014.8 |
| 20260901233059 | 74 | 256 | 8.0 | 13.0 | 0.00 | 0.00 | 0.00 | 71 | 1015.0 |
| 20260901231605 | 75 | 264 | 8.0 | 15.0 | 0.00 | 0.00 | 0.00 | 70 | 1015.0 |
| 20260901230056 | 74 | 248 | 8.0 | 17.0 | 0.00 | 0.00 | 0.00 | 71 | 1015.2 |
| 20260901224605 | 74 | 360 | 9.0 | 16.0 | 0.00 | 0.00 | 0.00 | 72 | 1015.0 |
| 20260901223056 | 74 | 263 | 10.0 | 17.0 | 0.00 | 0.00 | 0.00 | 72 | 1015.2 |
| 20260901221601 | 74 | 253 | 10.0 | 14.0 | 0.00 | 0.00 | 0.00 | 73 | 1015.2 |